Find IRIS

NORAD ID: 39197 Int'l Des: 2013-033 Owner: ARC/GSFC Country: US operational
LEOCIRCULARRETROGRADESSO

リアルタイム位置

3D地球を読み込み中...

IRISについて

説明を読み込み中...

次回通過

Passes for default location (London). Set your location on the main map for personalized predictions.

高度履歴

Loading altitude history...

軌道要素

1 39197U 13033A 26119.61029878 .00001287 00000-0 15355-3 0 9999
2 39197 97.9366 319.0346 0025736 116.5043 243.8815 14.85782725693165
Epoch: Apr 29, 2026 • Age: 16 hours

現在のステータス

高度 610.0 km
速度 7.57 km/s
衛星直下点 70.08°N, 27.98°W
打ち上げ日 Jun 28, 2013
運用期間 12.8 years
タイプ other

技術仕様

分類 Payload
質量 183.00 kg
乾燥質量 183.00 kg
総質量 183.00 kg
長さ 2.10 m
直径 1.00 m
スパン 3.70 m
形状 Hex+Cyl+2 pan
製造者 LMSAL
バスタイプ SMEX
フェーズステータス In Orbit
所有者/国 ARC/GSFC/US

Most Searched